Weather History for Pullman, WA

Change the Weather History Date:

Friday, November 9, 2012

  Actual Average Record
Temperature  
Mean Temperature 31 °F 39 °F  
Max Temperature 35 °F 46 °F 61 °F (1954)
Min Temperature 26 °F 32 °F 3 °F (1945)
Degree Days  
Heating Degree Days 34 26  
Month to date heating degree days 161 219  
Since 1 July heating degree days 966 1125  
Cooling Degree Days 0 0  
Month to date cooling degree days 0 0  
Year to date cooling degree days 248 213  
Moisture  
Dew Point 29 °F    
Average Humidity 86    
Maximum Humidity 96    
Minimum Humidity 75    
Precipitation  
Precipitation 0.01 in 0.07 in 0.51 in (1940)
Month to date precipitation 0.54 0.66  
Year to date precipitation 18.85 13.69  
Sea Level Pressure  
Sea Level Pressure 29.82 in    
Wind  
Wind Speed 5 mph (West)    
Max Wind Speed 14 mph    
Max Gust Speed 16 mph    
Visibility 9 miles    
Events Snow    
T = Trace of Precipitation, MM = Missing Value Source: NWS Daily Summary

Daily Weather History Graph

Daily Weather History Graph

Search for Another Location

Airport:

Trip Planner

Search our weather history database for the weather conditions in past years. The results will help you decide how hot, cold, wet, or windy it might be!

Date:

Astronomy

Nov. 09, 2012 Rise Set
Actual Time 6:43 AM PST 4:20 PM PST
Civil Twilight 6:10 AM PST 4:53 PM PST
Nautical Twilight 5:34 AM PST 5:29 PM PST
Astronomical Twilight 4:58 AM PST 6:05 PM PST
Moon 1:30 AM PST (11/9) 1:51 PM PST (11/9)
Length of Visible Light 10h 42m
Length of Day
9h 37m
Waning Crescent, 22% of the Moon is Illuminated
Nov 9
Waning Crescent
Nov 13
New
Nov 20
First Quarter
Nov 28
Full
Dec 6
Last Quarter

Hourly Weather History & Observations

Time (PST) Temp. Windchill Dew Point Humidity Pressure Visibility Wind Dir Wind Speed Gust Speed Precip Events Conditions
12:01 AM 33.8 °F 29.6 °F 30.2 °F 87% 29.71 in 8.0 mi WSW 4.6 mph - N/A   Overcast
12:41 AM 33.8 °F 27.7 °F 30.2 °F 87% 29.72 in 9.0 mi SSW 6.9 mph - N/A   Overcast
12:53 AM 34.0 °F 29.8 °F 32.0 °F 92% 29.78 in 8.0 mi SSW 4.6 mph - N/A   Overcast
1:05 AM 35.6 °F 30.7 °F 32.0 °F 87% 29.72 in 8.0 mi SW 5.8 mph - N/A   Overcast
1:43 AM 35.6 °F 30.7 °F 32.0 °F 87% 29.73 in 8.0 mi SW 5.8 mph - N/A   Overcast
1:53 AM 35.1 °F 30.1 °F 32.0 °F 89% 29.78 in 8.0 mi SSW 5.8 mph - N/A   Overcast
2:45 AM 33.8 °F 25.3 °F 32.0 °F 93% 29.74 in 6.0 mi SW 11.5 mph - 0.00 in   Overcast
2:53 AM 34.0 °F 25.5 °F 32.0 °F 92% 29.80 in 6.0 mi WSW 11.5 mph - 0.00 in   Overcast
3:09 AM 33.8 °F 27.7 °F 32.0 °F 93% 29.74 in 4.0 mi WSW 6.9 mph - 0.00 in   Overcast
3:17 AM 33.8 °F 26.4 °F 32.0 °F 93% 29.74 in 1.8 mi West 9.2 mph - 0.00 in   Overcast
3:53 AM 33.1 °F 24.4 °F 30.0 °F 89% 29.81 in 10.0 mi WSW 11.5 mph - 0.00 in   Overcast
4:31 AM 32.0 °F 24.8 °F 30.2 °F 93% 29.75 in 9.0 mi WSW 8.1 mph - 0.01 in   Overcast
4:45 AM 32.0 °F 23.6 °F 30.2 °F 93% 29.76 in 10.0 mi West 10.4 mph - 0.01 in   Overcast
4:53 AM 32.0 °F 27.5 °F 30.0 °F 92% 29.82 in 10.0 mi WSW 4.6 mph - 0.01 in   Overcast
5:53 AM 32.0 °F 24.8 °F 28.9 °F 88% 29.83 in 10.0 mi West 8.1 mph - N/A   Overcast
6:53 AM 32.0 °F 26.4 °F 30.0 °F 92% 29.84 in 10.0 mi WSW 5.8 mph - N/A   Overcast
7:49 AM 32.0 °F 25.6 °F 30.2 °F 93% 29.79 in 10.0 mi West 6.9 mph - N/A   Overcast
7:53 AM 32.0 °F 27.5 °F 30.0 °F 92% 29.85 in 10.0 mi WNW 4.6 mph - N/A   Overcast
8:44 AM 32.0 °F 24.2 °F 30.2 °F 93% 29.79 in 10.0 mi West 9.2 mph - N/A   Overcast
8:53 AM 32.0 °F 23.6 °F 30.0 °F 92% 29.86 in 10.0 mi West 10.4 mph - N/A   Overcast
9:53 AM 33.1 °F 25.5 °F 30.9 °F 92% 29.86 in 10.0 mi West 9.2 mph - N/A   Overcast
10:22 AM 33.8 °F 27.0 °F 30.2 °F 87% 29.80 in 10.0 mi West 8.1 mph - N/A   Mostly Cloudy
10:53 AM 34.0 °F 28.0 °F 30.0 °F 85% 29.86 in 10.0 mi West 6.9 mph - N/A   Overcast
11:10 AM 33.8 °F 27.0 °F 30.2 °F 87% 29.80 in 10.0 mi West 8.1 mph - N/A   Overcast
11:53 AM 35.1 °F 30.1 °F 30.0 °F 82% 29.85 in 10.0 mi WNW 5.8 mph - N/A   Overcast
12:01 PM 35.6 °F 29.2 °F 30.2 °F 81% 29.79 in 10.0 mi West 8.1 mph - N/A   Overcast
12:53 PM 35.1 °F 28.6 °F 28.0 °F 76% 29.85 in 10.0 mi West 8.1 mph - N/A   Overcast
1:07 PM 35.6 °F 30.7 °F 28.4 °F 75% 29.79 in 10.0 mi WNW 5.8 mph - N/A   Overcast
1:53 PM 35.1 °F 31.0 °F 28.9 °F 78% 29.85 in 10.0 mi WNW 4.6 mph - N/A   Overcast
2:53 PM 35.1 °F - 28.0 °F 76% 29.85 in 10.0 mi Calm Calm - N/A   Overcast
3:22 PM 33.8 °F 28.6 °F 28.4 °F 81% 29.80 in 4.0 mi NW 5.8 mph - 0.00 in Snow Light Snow
3:40 PM 33.8 °F 28.6 °F 28.4 °F 81% 29.80 in 10.0 mi NW 5.8 mph - 0.00 in   Overcast
3:53 PM 34.0 °F 29.8 °F 28.9 °F 82% 29.86 in 10.0 mi NW 4.6 mph - 0.00 in   Overcast
4:37 PM 33.8 °F 30.8 °F 30.2 °F 87% 29.81 in 10.0 mi North 3.5 mph - N/A   Overcast
4:53 PM 33.1 °F - 30.0 °F 89% 29.87 in 10.0 mi Calm Calm - N/A   Mostly Cloudy
5:53 PM 30.9 °F 25.2 °F 28.0 °F 89% 29.88 in 10.0 mi North 5.8 mph - N/A   Clear
7:53 PM 28.9 °F - 26.1 °F 89% 29.89 in 10.0 mi Calm Calm - N/A   Clear
8:53 PM 30.0 °F - 27.0 °F 88% 29.90 in 10.0 mi Calm Calm - N/A   Scattered Clouds
9:53 PM 27.0 °F - 24.1 °F 89% 29.90 in 9.0 mi Calm Calm - N/A   Partly Cloudy
10:07 PM 28.4 °F - 26.6 °F 93% 29.83 in 9.0 mi Calm Calm - N/A   Mostly Cloudy
10:48 PM 28.4 °F - 26.6 °F 93% 29.83 in 9.0 mi Calm Calm - N/A   Scattered Clouds
10:53 PM 28.9 °F - 26.1 °F 89% 29.90 in 9.0 mi Calm Calm - N/A   Partly Cloudy
11:35 PM 26.6 °F - 24.8 °F 93% 29.84 in 8.0 mi Calm Calm - N/A   Partly Cloudy
11:50 PM 26.6 °F - 24.8 °F 93% 29.84 in 8.0 mi Calm Calm - N/A   Mostly Cloudy
11:53 PM 26.1 °F - 24.1 °F 92% 29.91 in 7.0 mi Calm Calm - N/A   Mostly Cloudy